Moab, UT

6:13 AM MDT on October 16, 2019 (GMT -0600)
Canyonlands

Weather History for KCNY - August, 2019

Change the Weather History Date:

Saturday, August 24, 2019

  Actual Average Record
Temperature  
Mean Temperature 79 °F 75 °F  
Max Temperature 98 °F 90 °F 104 °F (1991)
Min Temperature 60 °F 60 °F 45 °F (1933)
Degree Days  
Heating Degree Days 0 0  
Month to date heating degree days 0 0  
Since 1 June heating degree days 23 17  
Since 1 July heating degree days 0 0  
Cooling Degree Days 14 10  
Month to date cooling degree days 378 310  
Year to date cooling degree days 1151 1103  
Since 1 June cooling degree days 1136 1039  
Growing Degree Days 30 (Base 50)    
Moisture  
Dew Point 28 °F    
Average Humidity 18    
Maximum Humidity 27    
Minimum Humidity 8    
Precipitation  
Precipitation 0.00 in 0.02 in 1.07 in (1982)
Month to date precipitation 0.02 0.63  
Year to date precipitation 6.17 5.17  
Sea Level Pressure  
Sea Level Pressure 29.79 in    
Wind  
Wind Speed 5 mph (West)    
Max Wind Speed 16 mph    
Max Gust Speed 23 mph    
Visibility 10 miles    
Events      
T = Trace of Precipitation, MM = Missing Value Source: NWS Daily Summary

Daily Weather History Graph

Daily Weather History Graph

Search for Another Location

Airport or City:

Astronomy

Aug. 24, 2019 Rise Set
Actual Time 6:40 AM MDT 8:01 PM MDT
Civil Twilight 6:13 AM MDT 8:28 PM MDT
Nautical Twilight 5:39 AM MDT 9:02 PM MDT
Astronomical Twilight 5:04 AM MDT 9:36 PM MDT
Moon 12:37 AM MDT (8/24) 3:18 PM MDT (8/24)
Length of Visible Light 14h 15m
Length of Day
13h 20m
Last Quarter, 38% of the Moon is Illuminated
Aug 24
Last Quarter
Aug 30
New
Sep 5
First Quarter
Sep 13
Full
Sep 21
Last Quarter

Hourly Weather History & Observations

Time (MDT) Temp. Dew Point Humidity Pressure Visibility Wind Dir Wind Speed Gust Speed Precip Events Conditions
12:53 AM 72.0 °F 28.9 °F 20% 29.75 in 10.0 mi SW 4.6 mph - N/A   Clear
1:53 AM 68.0 °F 28.0 °F 22% 29.77 in 10.0 mi WSW 3.5 mph - N/A   Clear
2:53 AM 68.0 °F 28.9 °F 23% 29.77 in 10.0 mi Calm Calm - N/A   Clear
3:53 AM 66.0 °F 28.0 °F 24% 29.79 in 10.0 mi Calm Calm - N/A   Clear
4:53 AM 64.0 °F 28.0 °F 26% 29.79 in 10.0 mi Calm Calm - N/A   Clear
5:53 AM 63.0 °F 28.0 °F 27% 29.81 in 10.0 mi Calm Calm - N/A   Clear
6:53 AM 64.0 °F 28.9 °F 27% 29.83 in 10.0 mi Calm Calm - N/A   Clear
7:53 AM 66.9 °F 30.0 °F 25% 29.85 in 10.0 mi Calm Calm - N/A   Clear
8:53 AM 75.0 °F 30.0 °F 19% 29.85 in 10.0 mi Calm Calm - N/A   Clear
9:53 AM 82.9 °F 30.9 °F 15% 29.84 in 10.0 mi Calm Calm - N/A   Clear
10:53 AM 87.1 °F 30.0 °F 13% 29.84 in 10.0 mi West 8.1 mph - N/A   Clear
11:53 AM 89.1 °F 28.0 °F 11% 29.85 in 10.0 mi West 10.4 mph - N/A   Clear
12:53 PM 91.9 °F 28.9 °F 11% 29.83 in 10.0 mi West 9.2 mph - N/A   Clear
1:53 PM 93.9 °F 28.0 °F 10% 29.82 in 10.0 mi WNW 16.1 mph 23.0 mph N/A   Clear
2:53 PM 95.0 °F 28.0 °F 9% 29.79 in 10.0 mi West 6.9 mph - N/A   Clear
3:53 PM 97.0 °F 27.0 °F 8% 29.77 in 10.0 mi WSW 11.5 mph - N/A   Clear
4:53 PM 96.1 °F 26.1 °F 8% 29.75 in 10.0 mi NW 5.8 mph - N/A   Clear
5:53 PM 97.0 °F 26.1 °F 8% 29.75 in 10.0 mi WNW 5.8 mph - N/A   Clear
6:53 PM 96.1 °F 27.0 °F 9% 29.75 in 10.0 mi NNW 4.6 mph - N/A   Clear
7:53 PM 91.0 °F 27.0 °F 10% 29.75 in 10.0 mi NNW 3.5 mph - N/A   Clear
8:53 PM 80.1 °F 25.0 °F 13% 29.76 in 10.0 mi WSW 4.6 mph - N/A   Clear
9:53 PM 82.0 °F 26.1 °F 13% 29.76 in 10.0 mi West 8.1 mph - N/A   Clear
10:53 PM 84.9 °F 30.0 °F 14% 29.76 in 10.0 mi West 11.5 mph - N/A   Clear
11:53 PM 80.1 °F 30.0 °F 16% 29.77 in 10.0 mi WSW 3.5 mph - N/A   Clear